Flag for U.S.A. Weather past 2 weeks in Bloomington, Indiana, U.S.A.

Now
76 °F

Clear.


Feels Like: 76 °F
Forecast: 70 / 77 °F
Wind: 7 mph from Southwest

Location: Monroe County Airport

Current Time: Jul 7, 2015 at 3:34:15 AM

Latest Report: Jul 7, 2015 at 2:53 AM


Visibility: 10 mi

Pressure: 29.93 "Hg

Humidity: 88%

Dew point: 72 °F

Location of BloomingtonLocation

Historic Weather in Bloomington — Graph

°F

Bloomington temperature yesterday

Maximum temperature yesterday: 84 °F (at 4:53 PM)
Minimum temperature yesterday: 62 °F (at 5:53 AM)
Average temperature yesterday: 75 °F

Past Weeks' High & Low Weather Summary

 TemperatureHumidityPressure
High85 °F (Jun 23, 2:53 PM)100% (Jun 26, 3:53 AM)30.18 "Hg (Jun 26, 3:53 AM)
Low55 °F (Jun 28, 4:53 AM)43% (Jun 28, 1:53 PM)29.76 "Hg (Jun 27, 2:53 AM)
Average72 °F81%29.94 "Hg
* Reported Jun 22 1:53 AM — Jul 7 1:53 AM, Bloomington, Weather by CustomWeather, © 2015

Note: Actual official high and low records may vary slightly from our data, if they occured in-between our weather recording intervals... More about our weather records

Advertising

Bloomington weather history for previous 24 hours

 ConditionsComfort  
Time TempWeatherWind HumidityBarometerVisibility
1:53 AM
Tue, Jul 7
76 °FClear.8 mph88%29.94 "Hg10 mi
12:53 AM77 °FClear.9 mph85%29.94 "Hg10 mi
11:53 PM
Mon, Jul 6
77 °FPassing clouds.8 mph85%29.96 "Hg10 mi
10:53 PM77 °FClear.6 mph85%29.97 "Hg10 mi
9:53 PM77 °FSunny.5 mph82%29.96 "Hg10 mi
8:53 PM79 °FSunny.6 mph77%29.95 "Hg10 mi
7:53 PM81 °FSunny.5 mph74%29.94 "Hg10 mi
6:53 PM83 °FSunny.8 mph65%29.96 "Hg10 mi
5:53 PM84 °FScattered clouds.10 mph63%29.98 "Hg10 mi
4:53 PM84 °FPassing clouds.14 mph63%29.99 "Hg10 mi
3:53 PM83 °FBroken clouds.7 mph65%30.00 "Hg10 mi
2:53 PM83 °FBroken clouds.7 mph63%30.01 "Hg10 mi
1:53 PM82 °FBroken clouds.8 mph65%30.05 "Hg8 mi
12:53 PM81 °FPassing clouds.7 mph67%30.05 "Hg8 mi
11:53 AM80 °FSunny.8 mph67%30.05 "Hg8 mi
10:53 AM78 °FSunny.6 mph76%30.06 "Hg8 mi
9:53 AM75 °FSunny.6 mph76%30.07 "Hg9 mi
8:53 AM72 °FSunny.7 mph76%30.07 "Hg10 mi
7:53 AM68 °FSunny.6 mph84%30.09 "Hg10 mi
6:53 AM65 °FFog.No wind94%30.07 "Hg6 mi
5:53 AM62 °FFog.No wind96%30.06 "Hg3 mi
4:53 AM63 °FFog.No wind97%30.04 "Hg5 mi
3:49 AM63 °FFog.No wind97%30.03 "Hg2 mi
Weather by CustomWeather, © 2015

See weather overviewHow to use our weather pages